Regional Weather Roundup
Issued by NWS

Home | Current Version | Previous Version | Graphics & Text | Print | Product List | Glossary On
Versions: 1 2 3 4 5 6 7 8 9 10 11 12 13 14 15 16 17 18 19 20 21 22 23 24 25 26 27 28 29 30 31 32 33 34 35 36 37 38 39 40 41 42 43 44 45 46 47 48 49 50
000
ASUS45 KSLC 281510
RWRUT

UTAH REGIONAL WEATHER ROUNDUP
NATIONAL WEATHER SERVICE SALT LAKE CITY UT
900 AM MDT TUE MAR 28 2017

UTZ001>011-023>025-281600-

NORTHERN UTAH

CITY           SKY/WX    TMP DP  RH WIND       PRES   REMARKS
BRIGHAM CITY     N/A     40  30  66 N16G22    30.14R WCI  32
DUGWAY         MOSUNNY   39  29  68 NW12      30.15R WCI  32
HILL AFB       MOSUNNY   37  31  76 N13       30.13R WCI  29
LOGAN          CLOUDY    41  32  70 N17       30.14R
OGDEN          PTSUNNY   40  32  73 NW8       30.13R WCI  34
SALT LAKE CITY PTSUNNY   40  32  73 NW13      30.13R WCI  32
WENDOVER       SUNNY     41  21  44 NW12G23   30.18R
HEBER CITY     CLOUDY    39  27  60 N5        30.06R
WEST JORDAN    CLOUDY    41  39  93 NW15      30.13R

$$

UTZ011>015-024>027-281600-

CENTRAL/NORTHEAST UTAH

CITY           SKY/WX    TMP DP  RH WIND       PRES   REMARKS
PROVO AIRPORT  PTSUNNY   41  33  73 N17       30.11R
MOAB/CANYONLAN CLOUDY    45  42  89 NW6       29.89R
DELTA          PTSUNNY   34  30  86 CALM      30.14R
PRICE          CLOUDY    41  29  62 NW18G28   29.95R
RICHFIELD      CLOUDY    39  34  81 CALM      30.12R
ROOSEVELT      CLOUDY    41  37  87 S5        29.96S
VERNAL         CLOUDY    43  38  82 SW3       29.94R

$$

UTZ013>016-019>022-027-281600-

SOUTHERN UTAH

CITY           SKY/WX    TMP DP  RH WIND       PRES   REMARKS
BRYCE CANYON   MOSUNNY   27  22  81 NW16G26   30.00R WCI  15
CEDAR CITY     CLOUDY    34  27  75 N12       30.08R WCI  25
MILFORD        SUNNY     37  27  67 NE14      30.12R WCI  28
ST GEORGE      MOSUNNY   53  25  33 E9        30.01R
HANKSVILLE     CLOUDY    46  32  57 NW9       29.94R
KANAB          MOSUNNY   46  25  42 NW23G29   30.00R
BLANDING       CLOUDY    39  39  97 SW5       29.94S

$$

REGIONAL REPORTS     COLORADO/ARIZONA

CITY           SKY/WX    TMP DP  RH WIND       PRES   REMARKS
CRAIG, CO      LGT SNOW  34  31  88 SW8       29.92R FOG     WCI  27
GRAND JUNCTION LGT RAIN  43  42  97 NW5       29.89R
RIFLE, CO      CLOUDY    43  40  89 W8        29.89R
MONTROSE, CO   CLOUDY    40  39  97 W5        29.90S
CORTEZ, CO     CLOUDY    41  37  86 W5        29.86R
COLORADO CITY    N/A     45  28  53 NW18      30.02R
PAGE, AZ       CLOUDY    51  28  41 W8        29.90R
GRAND CANYON   SUNNY     39  28  64 N12G17    29.94R WCI  32
KINGMAN, AZ    SUNNY     49  15  25 N18       29.99R
FLAGSTAFF, AZ  FLURRIES  36  30  79 E10       29.91R WCI  28

$$

REGIONAL REPORTS    NEVADA/IDAHO/WYOMING

CITY           SKY/WX    TMP DP  RH WIND       PRES   REMARKS
LAS VEGAS, NV  MOSUNNY   57  20  23 NW17      30.06R
ELY, NY        SUNNY     30  22  72 N12       30.18R WCI  20
ELKO, NV       SUNNY     32  26  78 CALM      30.24S
POCATELLO, ID  MOSUNNY   35  33  92 SW15      30.22R WCI  25
BURLEY, ID     CLOUDY    36  27  69 W13       30.22R WCI  27
FORT BRIDGER,  CLOUDY    33  33  99 W9        30.09R WCI  26
EVANSTON, WY   CLOUDY    31  26  82 N20       30.07S WCI  19
ROCK SPRINGS,  HVY SNOW  33  31  92 NW12      30.01R VSB 1/4 WCI  24
KEMMERER, WY     N/A     30  28  93 SW6       30.06R WCI  24

$$



USA.gov is the U.S. government's official web portal to all federal, state and local government web resources and services.